Location: Goettingen
(51.5300°N, 9.9433°E)
Time: 19:56:00
(UTC+01:00)

ISS - Pass Details

Date: 11 December 2017
Orbit: 402 x 407 km, 51.6° (Epoch: 11 December)

Event Time Altitude Azimuth Distance (km) Brightness Sun altitude
Rises 18:09:25 0° 283° (WNW) 2,332 1.1 -17.2°
Reaches altitude 10° 18:11:32 10° 278° (W) 1,469 0.0 -17.5°
Maximum altitude 18:14:45 53° 201° (SSW) 505 -3.2 -18.0°
Enters shadow 18:15:48 35° 144° (SE) 675 -2.9 -18.2°
